Location: Hengforden
(52.3167°N, 6.1333°E)
Time: 15:16:16
(UTC+00:00)

Landsat 5 - Pass Details

Date: 14 June 2025
Orbit: 509 x 611 km, 98.1° (Epoch: 19 July)

Event Time Altitude Azimuth Distance (km) Brightness Sun altitude
Rises 23:00:55 0° 13° (NNE) 2,886 8.4 -14.0°
Reaches altitude 10° 23:03:08 10° 13° (NNE) 1,970 7.3 -14.0°
Maximum altitude 23:07:25 80° 288° (WNW) 615 3.5 -14.1°
Enters shadow 23:10:15 20° 202° (SSW) 1,376 4.8 -14.2°
